User: anonymous   Login
Location: Unspecified
(0.0000°N, 0.0000°E)
Time: 03:30:45
(UTC+00:00)
Language:

SSETI-EXPRESS DEB - Orbit

View from above orbital plane
View from above orbital plane
View from above satellite
View from above satellite

Ground track
Ground track

The orbit data is extracted from the following two-line orbital elements,

1 28897U 05043H   17173.47256682 +.00000151 +00000-0 +37391-4 0  9999
2 28897 097.8623 335.9215 0017403 120.6745 307.8218 14.63839951613388
Epoch (UTC): 22 June 2017 11:20:29
Eccentricity: 0.0017403
inclination: 97.8623°
perigee height: 668 km
apogee height: 693 km
right ascension of ascending node: 335.9215°
argument of perigee: 120.6745°
revolutions per day: 14.63839951
mean anomaly at epoch: 307.8218°
orbit number at epoch: 61338

The dashed part of the orbit path shows where the satellite is in the earth's shadow,  

DLR